STARLINK-5020, 55458

Orbit data source: Space-Track

STARLINK-5020, 55458 is a payload satellite owned by SpaceX/Seattle (US) in LEO that was launched on Thu, 02 Feb 2023 UTC via an FALCON 9 launch vehicle from the Air Force Eastern Test Range (AFETR). Payload-class satellites include a variety of spacecraft equipped with specific instruments for various scientific and technological missions. These include communications satellites like Starlink; space stations such as the ISS; scientific satellites like the Hubble; Earth observation satellites from companies like Planet Labs, Umbra, and HawkEye 360; GPS; miniature CubeSats for education and research; and military/defense satellites.

Loading next visibility...
Identifier
55458, 2023-015K
Orbit
LEO
Country
Flag of USUS
Related business
Manufacturer
SpaceX/Seattle
Mission
Operational Commercial Communications
Bus & Motor
STARLINK, Unknown motor
Mass
305 kg wet, ~290 kg dry
Launch date (UTC)
2023-02-02 (3 years ago)
Launch vehicle
FALCON 9
Launch site
Air Force Eastern Test Range (AFETR)
Object type
Payload
Rocket body
Debris
Shape & HBR
Box + 1 Pan, 10.1 m
Radar Cross Section
13.562 m², Large (>1 m²)

Expand to show TLE details & history
Last TLE update: 15 hours ago

TLE from 15 hours ago
0 STARLINK-5020
1 55458U 23015K   25340.42477648  .00000428  00000-0  46723-4 0  9994
2 55458  43.0025 112.8392 0001133 271.3614  88.7098 15.02531649156728
Epoch: 2025-12-06T10:11Z
TLE epoch observation values (Epoch: 2025-12-06T10:11:40.687Z)
Latitude
-0.00007°
Longitude
-115.53311°
Altitude
558.853 km
Speed
7.584 km/s
True Right ascension
07h 31m 21s
True Declination
0° 00' 00"
Sunlit
Object was in full shadow at epoch
Visualization orbit readout
Latitude
Unknown
Longitude
Unknown
Altitude
Unknown
Speed
Unknown
Apparent Right ascension
Unknown
Apparent Declination
Unknown
Sunlit
N/A
Visualization observer readout
Local Sidereal Time
23:26:30
Azimuth
Unknown
Elevation
Unknown
Doppler factor
Unknown
Orbital elements
Apogee altitude
561.803 km
Perigee altitude
560.23 km
Semi-major axis
6,939.153 km
Eccentricity
0.00011
Inclination
43.0025°
RAAN
112.8392°
Arg. of periapsis
271.3614°
True anomaly
88.72278°
Mean anomaly
88.7098°
Eccentric anomaly
88.71629°
Mean motion
3.75477 °/min
Orbital period
95.88 mins
BSTAR
0.000046723
Loading maneuver chart data...
Computing Atmospheric mass density...
Loading historical data...
Loading historical data...
Loading historical data...
Loading historical data...
Loading historical data...
Loading historical data...
Loading historical data...

Documentation

Showing up to 5 results
|